| time (UTC) | temp F | wind direction | speed MPH | gust MPH | rain 1hr in | rain 24hr in | rain mn in | humidity % | barometer mb |
| 20260509182751 | 50 | 255 | 2.0 | 3.0 | 0.05 | 0.82 | 0.82 | 99 | 1010.1 |
| 20260509182249 | 50 | 155 | 2.0 | 2.0 | 0.05 | 0.82 | 0.82 | 99 | 1009.9 |
| 20260509181746 | 50 | 211 | 3.0 | 3.0 | 0.00 | 0.81 | 0.81 | 99 | 1009.9 |
| 20260509181243 | 50 | 172 | 3.0 | 5.0 | 0.00 | 0.81 | 0.81 | 99 | 1009.7 |
| 20260509180740 | 49 | 231 | 2.0 | 2.0 | 0.07 | 0.81 | 0.81 | 99 | 1009.9 |
| 20260509180236 | 49 | 250 | 4.0 | 5.0 | 0.07 | 0.81 | 0.81 | 99 | 1010.0 |
| 20260509175733 | 49 | 202 | 3.0 | 3.0 | 0.05 | 0.80 | 0.80 | 99 | 1009.9 |
| 20260509175229 | 50 | 205 | 3.0 | 3.0 | 0.07 | 0.79 | 0.79 | 99 | 1009.9 |
| 20260509174725 | 50 | 165 | 2.0 | 2.0 | 0.07 | 0.79 | 0.79 | 99 | 1009.8 |
| 20260509174221 | 50 | 154 | 2.0 | 2.0 | 0.05 | 0.78 | 0.78 | 99 | 1009.8 |
| 20260509173717 | 50 | 335 | 1.0 | 1.0 | 0.12 | 0.78 | 0.78 | 99 | 1010.1 |
| 20260509173213 | 50 | 294 | 1.0 | 1.0 | 0.07 | 0.77 | 0.77 | 99 | 1009.8 |
| 20260509172709 | 49 | 354 | 0.0 | 1.0 | 0.07 | 0.76 | 0.76 | 99 | 1009.8 |
| 20260509172206 | 49 | 297 | 1.0 | 1.0 | 0.07 | 0.76 | 0.76 | 99 | 1009.9 |
| 20260509171701 | 49 | 300 | 2.0 | 2.0 | 0.05 | 0.75 | 0.75 | 99 | 1009.8 |
| 20260509171157 | 49 | 37 | 1.0 | 1.0 | 0.05 | 0.75 | 0.75 | 99 | 1009.8 |
| 20260509170654 | 49 | 336 | 1.0 | 2.0 | 0.07 | 0.74 | 0.74 | 99 | 1009.8 |
| 20260509170151 | 49 | 62 | 1.0 | 1.0 | 0.07 | 0.74 | 0.74 | 99 | 1010.0 |
| 20260509165649 | 49 | 311 | 1.0 | 1.0 | 0.05 | 0.73 | 0.73 | 99 | 1009.9 |
| 20260509165144 | 49 | 356 | 0.0 | 1.0 | 0.12 | 0.73 | 0.73 | 99 | 1010.1 |
| 20260509164641 | 49 | 350 | 1.0 | 1.0 | 0.07 | 0.72 | 0.72 | 99 | 1009.9 |
| 20260509164136 | 49 | 18 | 0.0 | 1.0 | 0.05 | 0.71 | 0.71 | 99 | 1009.9 |
| 20260509163634 | 49 | 356 | 1.0 | 1.0 | 0.07 | 0.70 | 0.70 | 99 | 1010.1 |
| 20260509163130 | 49 | 248 | 1.0 | 2.0 | 0.12 | 0.70 | 0.70 | 99 | 1010.0 |
| 20260509162627 | 49 | 327 | 1.0 | 1.0 | 0.05 | 0.69 | 0.69 | 99 | 1010.0 |
| 20260509162123 | 49 | 351 | 1.0 | 2.0 | 0.07 | 0.68 | 0.68 | 99 | 1010.2 |
| 20260509161620 | 49 | 182 | 1.0 | 1.0 | 0.12 | 0.68 | 0.68 | 99 | 1010.4 |
| 20260509161115 | 49 | 206 | 3.0 | 3.0 | 0.12 | 0.67 | 0.67 | 99 | 1010.3 |
| 20260509160611 | 49 | 61 | 1.0 | 1.0 | 0.07 | 0.66 | 0.66 | 99 | 1010.1 |
| 20260509160106 | 49 | 39 | 1.0 | 1.0 | 0.05 | 0.65 | 0.65 | 99 | 1010.3 |
| 20260509155602 | 49 | 9 | 0.0 | 0.0 | 0.12 | 0.65 | 0.65 | 99 | 1010.3 |
| 20260509155059 | 49 | 13 | 1.0 | 1.0 | 0.14 | 0.64 | 0.64 | 99 | 1010.4 |
| 20260509154555 | 48 | 316 | 1.0 | 1.0 | 0.12 | 0.63 | 0.63 | 99 | 1010.4 |
| 20260509154052 | 48 | 219 | 2.0 | 2.0 | 0.05 | 0.62 | 0.62 | 99 | 1010.8 |
| 20260509153549 | 48 | 26 | 1.0 | 1.0 | 0.12 | 0.61 | 0.61 | 99 | 1010.7 |
| 20260509153046 | 48 | 358 | 0.0 | 0.0 | 0.19 | 0.61 | 0.61 | 99 | 1010.9 |
| 20260509152542 | 48 | 82 | 1.0 | 1.0 | 0.07 | 0.59 | 0.59 | 99 | 1011.2 |
| 20260509152040 | 48 | 7 | 0.0 | 1.0 | 0.12 | 0.58 | 0.58 | 99 | 1011.0 |
| 20260509151535 | 48 | 42 | 1.0 | 1.0 | 0.12 | 0.58 | 0.58 | 99 | 1011.2 |
| 20260509151033 | 48 | 334 | 1.0 | 1.0 | 0.12 | 0.57 | 0.57 | 99 | 1011.3 |
| 20260509150531 | 48 | 348 | 1.0 | 1.0 | 0.12 | 0.56 | 0.56 | 99 | 1010.9 |
| 20260509150029 | 48 | 350 | 0.0 | 0.0 | 0.12 | 0.55 | 0.55 | 99 | 1011.1 |
| 20260509145524 | 48 | 23 | 1.0 | 1.0 | 0.05 | 0.54 | 0.54 | 99 | 1011.2 |
| 20260509145019 | 48 | 353 | 0.0 | 1.0 | 0.17 | 0.54 | 0.54 | 99 | 1011.3 |
| 20260509144517 | 47 | 27 | 0.0 | 1.0 | 0.19 | 0.53 | 0.53 | 99 | 1011.2 |
| 20260509144014 | 47 | 305 | 1.0 | 2.0 | 0.14 | 0.51 | 0.51 | 99 | 1011.4 |
| 20260509143511 | 48 | 327 | 1.0 | 1.0 | 0.12 | 0.50 | 0.50 | 99 | 1011.3 |
| 20260509143009 | 47 | 3 | 0.0 | 0.0 | 0.05 | 0.49 | 0.49 | 99 | 1011.4 |
| 20260509142504 | 47 | 299 | 1.0 | 1.0 | 0.12 | 0.48 | 0.48 | 99 | 1011.3 |
| 20260509141959 | 47 | 347 | 1.0 | 1.0 | 0.12 | 0.47 | 0.47 | 99 | 1011.2 |
| 20260509141456 | 47 | 8 | 0.0 | 0.0 | 0.12 | 0.46 | 0.46 | 99 | 1011.0 |
| 20260509140953 | 47 | 343 | 1.0 | 1.0 | 0.12 | 0.45 | 0.45 | 99 | 1011.3 |
| 20260509140449 | 47 | 355 | 1.0 | 1.0 | 0.12 | 0.44 | 0.44 | 99 | 1011.1 |
| 20260509135948 | 47 | 13 | 1.0 | 1.0 | 0.12 | 0.43 | 0.43 | 99 | 1011.3 |
| 20260509135445 | 47 | 331 | 1.0 | 1.0 | 0.12 | 0.42 | 0.42 | 99 | 1011.0 |
| 20260509134942 | 47 | 36 | 1.0 | 1.0 | 0.12 | 0.41 | 0.41 | 99 | 1010.9 |
| 20260509134440 | 47 | 29 | 0.0 | 1.0 | 0.07 | 0.40 | 0.40 | 99 | 1011.1 |
| 20260509133937 | 47 | 27 | 0.0 | 1.0 | 0.07 | 0.39 | 0.39 | 99 | 1011.3 |
| 20260509133433 | 47 | 59 | 1.0 | 2.0 | 0.12 | 0.39 | 0.39 | 99 | 1011.0 |
| 20260509132932 | 47 | 333 | 1.0 | 2.0 | 0.12 | 0.38 | 0.38 | 99 | 1011.2 |
| 20260509132429 | 47 | 322 | 1.0 | 1.0 | 0.12 | 0.37 | 0.37 | 99 | 1011.2 |
| 20260509131926 | 46 | 358 | 0.0 | 0.0 | 0.12 | 0.36 | 0.36 | 99 | 1011.3 |
| 20260509131424 | 47 | 331 | 1.0 | 1.0 | 0.12 | 0.35 | 0.35 | 99 | 1011.2 |
| 20260509130920 | 46 | 289 | 1.0 | 1.0 | 0.05 | 0.34 | 0.34 | 99 | 1011.2 |
| 20260509130415 | 47 | 5 | 0.0 | 0.0 | 0.07 | 0.33 | 0.33 | 99 | 1011.2 |
| 20260509125912 | 47 | 0 | 0.0 | 1.0 | 0.12 | 0.33 | 0.33 | 99 | 1011.1 |
| 20260509125409 | 46 | 334 | 0.0 | 1.0 | 0.05 | 0.32 | 0.32 | 99 | 1011.3 |
| 20260509124905 | 47 | 313 | 1.0 | 1.0 | 0.07 | 0.31 | 0.31 | 99 | 1011.0 |
| 20260509124402 | 46 | 332 | 0.0 | 1.0 | 0.00 | 0.30 | 0.30 | 99 | 1011.0 |
| 20260509123900 | 46 | 3 | 0.0 | 0.0 | 0.00 | 0.30 | 0.30 | 99 | 1011.0 |
| 20260509123357 | 46 | 339 | 0.0 | 0.0 | 0.05 | 0.30 | 0.30 | 99 | 1010.9 |
| 20260509122852 | 46 | 352 | 0.0 | 0.0 | 0.05 | 0.30 | 0.30 | 99 | 1010.9 |
| 20260509122350 | 46 | 346 | 0.0 | 0.0 | 0.00 | 0.29 | 0.29 | 99 | 1011.0 |
| 20260509121846 | 46 | 349 | 0.0 | 0.0 | 0.00 | 0.29 | 0.29 | 99 | 1011.1 |
| 20260509121343 | 46 | 352 | 0.0 | 0.0 | 0.00 | 0.29 | 0.29 | 99 | 1011.1 |
| 20260509120842 | 46 | 12 | 1.0 | 1.0 | 0.00 | 0.29 | 0.29 | 99 | 1011.2 |
| 20260509120339 | 46 | 345 | 0.0 | 0.0 | 0.00 | 0.29 | 0.29 | 99 | 1011.3 |
| 20260509115837 | 46 | 333 | 1.0 | 1.0 | 0.00 | 0.29 | 0.29 | 99 | 1011.3 |
| 20260509115334 | 46 | 358 | 0.0 | 0.0 | 0.00 | 0.29 | 0.29 | 99 | 1011.2 |
| 20260509114832 | 46 | 351 | 0.0 | 0.0 | 0.00 | 0.29 | 0.29 | 99 | 1011.2 |
| 20260509114330 | 46 | 351 | 0.0 | 0.0 | 0.00 | 0.29 | 0.29 | 99 | 1011.3 |
| 20260509113829 | 45 | 350 | 0.0 | 0.0 | 0.00 | 0.29 | 0.29 | 99 | 1011.1 |
| 20260509113326 | 45 | 1 | 0.0 | 0.0 | 0.00 | 0.29 | 0.29 | 99 | 1011.6 |
| 20260509112822 | 45 | 345 | 0.0 | 0.0 | 0.00 | 0.29 | 0.29 | 99 | 1011.5 |
| 20260509112320 | 45 | 345 | 0.0 | 0.0 | 0.00 | 0.29 | 0.29 | 99 | 1011.5 |
| 20260509111817 | 45 | 345 | 0.0 | 0.0 | 0.00 | 0.29 | 0.29 | 99 | 1011.5 |
| 20260509111314 | 45 | 345 | 0.0 | 0.0 | 0.00 | 0.29 | 0.29 | 99 | 1011.4 |
| 20260509110811 | 45 | 344 | 0.0 | 0.0 | 0.00 | 0.29 | 0.29 | 99 | 1011.4 |
| 20260509110307 | 45 | 343 | 1.0 | 1.0 | 0.00 | 0.29 | 0.29 | 99 | 1011.4 |
| 20260509105806 | 45 | 348 | 0.0 | 0.0 | 0.00 | 0.29 | 0.29 | 99 | 1011.1 |
| 20260509105306 | 45 | 346 | 0.0 | 0.0 | 0.00 | 0.29 | 0.29 | 99 | 1011.2 |
| 20260509104800 | 45 | 347 | 0.0 | 0.0 | 0.00 | 0.29 | 0.29 | 99 | 1011.2 |
| 20260509104256 | 45 | 348 | 0.0 | 0.0 | 0.00 | 0.29 | 0.29 | 99 | 1011.2 |
| 20260509103755 | 45 | 350 | 0.0 | 0.0 | 0.00 | 0.29 | 0.29 | 99 | 1011.2 |
| 20260509103252 | 45 | 349 | 0.0 | 0.0 | 0.07 | 0.29 | 0.29 | 99 | 1011.2 |
| 20260509102750 | 45 | 349 | 0.0 | 0.0 | 0.07 | 0.29 | 0.29 | 99 | 1011.5 |
| 20260509102247 | 45 | 349 | 0.0 | 0.0 | 0.05 | 0.28 | 0.28 | 99 | 1011.5 |
| 20260509101743 | 45 | 349 | 0.0 | 0.0 | 0.05 | 0.28 | 0.28 | 99 | 1011.5 |
| 20260509101239 | 45 | 347 | 0.0 | 0.0 | 0.07 | 0.27 | 0.27 | 99 | 1011.6 |
| 20260509100737 | 45 | 341 | 0.0 | 0.0 | 0.07 | 0.27 | 0.27 | 99 | 1011.6 |
| 20260509100234 | 44 | 0 | 0.0 | 0.0 | 0.00 | 0.26 | 0.26 | 99 | 1011.4 |
| 20260509095730 | 45 | 6 | 0.0 | 0.0 | 0.00 | 0.26 | 0.26 | 99 | 1011.4 |
| 20260509095228 | 44 | 14 | 0.0 | 0.0 | 0.07 | 0.26 | 0.26 | 99 | 1011.4 |
| 20260509094725 | 44 | 2 | 0.0 | 0.0 | 0.07 | 0.26 | 0.26 | 99 | 1011.6 |
| 20260509094222 | 44 | 356 | 0.0 | 0.0 | 0.07 | 0.26 | 0.26 | 99 | 1011.4 |
| 20260509093720 | 44 | 343 | 0.0 | 1.0 | 0.00 | 0.25 | 0.25 | 99 | 1011.5 |
| 20260509093217 | 44 | 340 | 0.0 | 1.0 | 0.00 | 0.25 | 0.25 | 99 | 1011.2 |
| 20260509092715 | 44 | 349 | 0.0 | 0.0 | 0.00 | 0.25 | 0.25 | 99 | 1011.5 |
| 20260509092213 | 44 | 322 | 0.0 | 1.0 | 0.00 | 0.25 | 0.25 | 99 | 1011.2 |
| 20260509091710 | 44 | 343 | 0.0 | 0.0 | 0.00 | 0.25 | 0.25 | 99 | 1011.6 |
| 20260509091206 | 44 | 337 | 0.0 | 1.0 | 0.05 | 0.25 | 0.25 | 99 | 1011.5 |
| 20260509090704 | 44 | 335 | 1.0 | 1.0 | 0.05 | 0.25 | 0.25 | 99 | 1011.5 |
| 20260509090201 | 44 | 343 | 0.0 | 0.0 | 0.05 | 0.25 | 0.25 | 99 | 1011.4 |
| 20260509085659 | 44 | 349 | 0.0 | 0.0 | 0.00 | 0.24 | 0.24 | 99 | 1011.6 |
| 20260509085155 | 43 | 340 | 0.0 | 1.0 | 0.07 | 0.24 | 0.24 | 99 | 1011.5 |
| 20260509084652 | 44 | 340 | 0.0 | 1.0 | 0.07 | 0.24 | 0.24 | 99 | 1011.6 |
| 20260509084149 | 44 | 349 | 0.0 | 0.0 | 0.00 | 0.23 | 0.23 | 99 | 1011.4 |
| 20260509083647 | 44 | 13 | 0.0 | 0.0 | 0.00 | 0.23 | 0.23 | 99 | 1011.3 |
| 20260509083143 | 44 | 21 | 1.0 | 1.0 | 0.00 | 0.23 | 0.23 | 99 | 1011.4 |
| 20260509082640 | 44 | 6 | 0.0 | 0.0 | 0.05 | 0.23 | 0.23 | 99 | 1011.2 |
| 20260509082137 | 44 | 2 | 0.0 | 0.0 | 0.12 | 0.23 | 0.23 | 99 | 1011.4 |
| 20260509081634 | 43 | 354 | 0.0 | 1.0 | 0.05 | 0.21 | 0.21 | 99 | 1011.6 |
| 20260509081131 | 43 | 352 | 0.0 | 0.0 | 0.05 | 0.21 | 0.21 | 99 | 1011.3 |
| 20260509080629 | 43 | 353 | 0.0 | 0.0 | 0.12 | 0.21 | 0.21 | 99 | 1011.5 |
| 20260509080127 | 43 | 354 | 0.0 | 0.0 | 0.07 | 0.20 | 0.20 | 99 | 1011.6 |
| 20260509075625 | 43 | 357 | 0.0 | 0.0 | 0.05 | 0.19 | 0.19 | 99 | 1011.7 |
| 20260509075122 | 43 | 357 | 0.0 | 0.0 | 0.12 | 0.19 | 0.19 | 99 | 1011.9 |
| 20260509074618 | 43 | 356 | 0.0 | 0.0 | 0.12 | 0.18 | 0.18 | 99 | 1011.8 |
| 20260509074115 | 43 | 5 | 0.0 | 0.0 | 0.12 | 0.17 | 0.17 | 99 | 1011.7 |
| 20260509073612 | 43 | 2 | 0.0 | 0.0 | 0.12 | 0.16 | 0.16 | 99 | 1011.8 |
| 20260509073108 | 43 | 353 | 0.0 | 1.0 | 0.05 | 0.15 | 0.15 | 99 | 1011.7 |
| 20260509072605 | 43 | 352 | 0.0 | 0.0 | 0.07 | 0.14 | 0.14 | 99 | 1011.9 |
| 20260509072102 | 43 | 353 | 0.0 | 0.0 | 0.14 | 0.14 | 0.14 | 99 | 1011.8 |
| 20260509071558 | 43 | 357 | 1.0 | 1.0 | 0.12 | 0.13 | 0.13 | 99 | 1011.7 |
| 20260509071056 | 43 | 353 | 0.0 | 0.0 | 0.17 | 0.12 | 0.12 | 99 | 1011.9 |
| 20260509070553 | 43 | 335 | 1.0 | 1.0 | 0.19 | 0.11 | 0.11 | 99 | 1012.0 |
| 20260509070049 | 43 | 340 | 1.0 | 1.0 | 0.12 | 0.09 | 0.09 | 99 | 1012.0 |
| 20260509065545 | 43 | 344 | 0.0 | 0.0 | 0.12 | 0.08 | 0.08 | 99 | 1012.2 |
| 20260509065041 | 42 | 341 | 0.0 | 1.0 | 0.07 | 0.07 | 0.07 | 99 | 1012.1 |
| 20260509064539 | 42 | 336 | 0.0 | 1.0 | 0.05 | 0.06 | 0.06 | 99 | 1012.3 |
| 20260509064037 | 42 | 343 | 0.0 | 0.0 | 0.12 | 0.06 | 0.06 | 99 | 1012.1 |
| 20260509063532 | 42 | 359 | 0.0 | 0.0 | 0.12 | 0.05 | 0.05 | 99 | 1012.2 |
| 20260509063029 | 43 | 23 | 1.0 | 1.0 | 0.05 | 0.04 | 0.04 | 99 | 1012.2 |
| 20260509062526 | 43 | 35 | 1.0 | 1.0 | 0.00 | 0.03 | 0.03 | 99 | 1012.2 |
| 20260509062024 | 43 | 345 | 0.0 | 0.0 | 0.07 | 0.03 | 0.03 | 99 | 1011.7 |
| 20260509061521 | 43 | 0 | 1.0 | 1.0 | 0.07 | 0.03 | 0.03 | 99 | 1011.8 |
| 20260509061018 | 43 | 0 | 0.0 | 0.0 | 0.05 | 0.02 | 0.02 | 99 | 1011.7 |
| 20260509060515 | 42 | 356 | 0.0 | 0.0 | 0.05 | 0.02 | 0.02 | 99 | 1011.7 |
| 20260509060011 | 42 | 354 | 0.0 | 0.0 | 0.07 | 0.01 | 0.01 | 99 | 1012.0 |
| 20260509055506 | 42 | 354 | 0.0 | 0.0 | 0.07 | 0.01 | 0.01 | 99 | 1011.8 |
| 20260509055003 | 42 | 355 | 0.0 | 0.0 | 0.00 | 0.00 | 0.00 | 99 | 1012.0 |
| 20260509054459 | 42 | 356 | 0.0 | 0.0 | 0.00 | 0.00 | 0.00 | 99 | 1011.7 |
| 20260509053958 | 42 | 356 | 0.0 | 0.0 | 0.00 | 0.00 | 0.00 | 99 | 1012.0 |
| 20260509053455 | 42 | 36 | 1.0 | 1.0 | 0.00 | 0.00 | 0.00 | 99 | 1012.0 |
| 20260509052953 | 42 | 344 | 0.0 | 1.0 | 0.00 | 0.00 | 0.00 | 99 | 1012.0 |
| 20260509052450 | 42 | 351 | 0.0 | 0.0 | 0.00 | 0.00 | 0.00 | 99 | 1012.0 |
| 20260509051948 | 42 | 359 | 0.0 | 0.0 | 0.00 | 0.00 | 0.00 | 99 | 1011.8 |
| 20260509051446 | 42 | 0 | 0.0 | 0.0 | 0.00 | 0.00 | 0.00 | 99 | 1012.0 |
| 20260509050943 | 42 | 359 | 0.0 | 0.0 | 0.00 | 0.00 | 0.00 | 99 | 1012.0 |
| 20260509050439 | 42 | 359 | 0.0 | 0.0 | 0.00 | 0.00 | 0.00 | 99 | 1011.9 |
| 20260509045936 | 42 | 0 | 0.0 | 0.0 | 0.00 | 0.00 | 0.00 | 99 | 1012.0 |
| 20260509045433 | 42 | 0 | 0.0 | 0.0 | 0.00 | 0.00 | 0.00 | 99 | 1012.1 |
| 20260509044930 | 42 | 0 | 0.0 | 0.0 | 0.00 | 0.00 | 0.00 | 99 | 1012.2 |
| 20260509044428 | 42 | 0 | 0.0 | 0.0 | 0.00 | 0.00 | 0.00 | 99 | 1012.1 |
| 20260509043925 | 42 | 0 | 0.0 | 0.0 | 0.00 | 0.00 | 0.00 | 99 | 1012.4 |
| 20260509043420 | 42 | 0 | 0.0 | 0.0 | 0.00 | 0.00 | 0.00 | 99 | 1012.4 |
| 20260509042916 | 42 | 0 | 0.0 | 0.0 | 0.00 | 0.00 | 0.00 | 99 | 1012.3 |
| 20260509042413 | 42 | 8 | 0.0 | 0.0 | 0.00 | 0.00 | 0.00 | 99 | 1012.3 |
| 20260509041909 | 42 | 9 | 0.0 | 0.0 | 0.00 | 0.00 | 0.00 | 99 | 1012.3 |
| 20260509041406 | 42 | 356 | 0.0 | 0.0 | 0.00 | 0.00 | 0.00 | 99 | 1012.3 |
| 20260509040904 | 42 | 356 | 0.0 | 0.0 | 0.00 | 0.00 | 0.00 | 99 | 1012.4 |
| 20260509040402 | 42 | 356 | 0.0 | 0.0 | 0.00 | 0.00 | 0.00 | 99 | 1012.3 |
| 20260509035859 | 42 | 355 | 0.0 | 0.0 | 0.00 | 0.09 | 0.09 | 99 | 1012.4 |
| 20260509035356 | 42 | 357 | 0.0 | 0.0 | 0.00 | 0.09 | 0.09 | 99 | 1012.2 |
| 20260509034852 | 42 | 8 | 0.0 | 0.0 | 0.00 | 0.09 | 0.09 | 99 | 1012.4 |
| 20260509034350 | 42 | 11 | 0.0 | 0.0 | 0.00 | 0.09 | 0.09 | 99 | 1012.4 |
| 20260509033847 | 42 | 354 | 0.0 | 0.0 | 0.00 | 0.09 | 0.09 | 99 | 1012.3 |
| 20260509033344 | 42 | 354 | 0.0 | 0.0 | 0.00 | 0.09 | 0.09 | 99 | 1012.3 |
| 20260509032840 | 42 | 355 | 0.0 | 0.0 | 0.00 | 0.09 | 0.09 | 99 | 1012.2 |
| 20260509032338 | 42 | 356 | 0.0 | 0.0 | 0.00 | 0.09 | 0.09 | 99 | 1012.3 |
| 20260509031836 | 42 | 356 | 0.0 | 0.0 | 0.00 | 0.09 | 0.09 | 99 | 1012.2 |
| 20260509031332 | 41 | 355 | 0.0 | 0.0 | 0.00 | 0.09 | 0.09 | 99 | 1012.4 |
| 20260509030830 | 41 | 2 | 0.0 | 0.0 | 0.00 | 0.09 | 0.09 | 99 | 1012.3 |
| 20260509030328 | 41 | 2 | 0.0 | 0.0 | 0.00 | 0.09 | 0.09 | 99 | 1012.4 |
| 20260509025825 | 41 | 3 | 0.0 | 0.0 | 0.00 | 0.09 | 0.09 | 99 | 1011.9 |
| 20260509025320 | 41 | 356 | 0.0 | 1.0 | 0.00 | 0.09 | 0.09 | 99 | 1012.4 |
| 20260509024815 | 41 | 353 | 0.0 | 1.0 | 0.00 | 0.09 | 0.09 | 99 | 1012.1 |
| 20260509024312 | 41 | 351 | 1.0 | 1.0 | 0.00 | 0.09 | 0.09 | 98 | 1012.2 |
| 20260509023809 | 42 | 8 | 0.0 | 0.0 | 0.00 | 0.09 | 0.09 | 98 | 1012.0 |
| 20260509023306 | 42 | 8 | 0.0 | 0.0 | 0.00 | 0.09 | 0.09 | 98 | 1012.1 |
| 20260509022802 | 43 | 8 | 0.0 | 0.0 | 0.00 | 0.09 | 0.09 | 97 | 1012.2 |
| 20260509022300 | 43 | 8 | 0.0 | 0.0 | 0.00 | 0.09 | 0.09 | 97 | 1012.3 |
| 20260509021757 | 44 | 2 | 0.0 | 0.0 | 0.00 | 0.09 | 0.09 | 96 | 1012.4 |
| 20260509021254 | 44 | 3 | 0.0 | 0.0 | 0.00 | 0.09 | 0.09 | 95 | 1012.2 |
| 20260509020752 | 45 | 359 | 0.0 | 0.0 | 0.00 | 0.09 | 0.09 | 94 | 1012.3 |
| 20260509020249 | 45 | 359 | 0.0 | 1.0 | 0.00 | 0.09 | 0.09 | 93 | 1012.2 |
| 20260509015747 | 45 | 359 | 0.0 | 0.0 | 0.00 | 0.09 | 0.09 | 93 | 1012.0 |
| 20260509015245 | 45 | 359 | 0.0 | 0.0 | 0.00 | 0.09 | 0.09 | 93 | 1012.2 |
| 20260509014741 | 45 | 0 | 1.0 | 1.0 | 0.00 | 0.09 | 0.09 | 93 | 1012.2 |
| 20260509014238 | 45 | 359 | 1.0 | 1.0 | 0.00 | 0.09 | 0.09 | 93 | 1012.0 |
| 20260509013735 | 45 | 0 | 0.0 | 0.0 | 0.00 | 0.09 | 0.09 | 93 | 1012.1 |
| 20260509013230 | 45 | 6 | 1.0 | 1.0 | 0.00 | 0.09 | 0.09 | 94 | 1012.4 |
| 20260509012727 | 45 | 352 | 0.0 | 0.0 | 0.00 | 0.09 | 0.09 | 94 | 1012.2 |
| 20260509012224 | 45 | 351 | 0.0 | 0.0 | 0.00 | 0.09 | 0.09 | 93 | 1012.1 |
| 20260509011722 | 45 | 351 | 0.0 | 0.0 | 0.00 | 0.09 | 0.09 | 93 | 1012.1 |
| 20260509011219 | 45 | 3 | 0.0 | 0.0 | 0.00 | 0.09 | 0.09 | 92 | 1012.0 |
| 20260509010717 | 45 | 3 | 0.0 | 0.0 | 0.00 | 0.09 | 0.09 | 91 | 1011.9 |
| 20260509010213 | 45 | 3 | 0.0 | 0.0 | 0.00 | 0.09 | 0.09 | 90 | 1011.9 |
| 20260509005711 | 46 | 3 | 0.0 | 0.0 | 0.00 | 0.09 | 0.09 | 90 | 1011.4 |
| 20260509005208 | 46 | 8 | 0.0 | 0.0 | 0.00 | 0.09 | 0.09 | 89 | 1011.4 |
| 20260509004702 | 47 | 357 | 0.0 | 0.0 | 0.00 | 0.09 | 0.09 | 88 | 1011.5 |
| 20260509004200 | 47 | 354 | 0.0 | 0.0 | 0.00 | 0.09 | 0.09 | 86 | 1011.4 |
| 20260509003658 | 48 | 304 | 1.0 | 1.0 | 0.00 | 0.09 | 0.09 | 85 | 1011.5 |
| 20260509003155 | 48 | 337 | 1.0 | 1.0 | 0.00 | 0.09 | 0.09 | 85 | 1011.5 |
| 20260509002652 | 48 | 337 | 0.0 | 1.0 | 0.00 | 0.09 | 0.09 | 84 | 1011.5 |
| 20260509002150 | 48 | 258 | 2.0 | 2.0 | 0.00 | 0.09 | 0.09 | 83 | 1011.6 |
| 20260509001647 | 48 | 348 | 0.0 | 0.0 | 0.00 | 0.09 | 0.09 | 82 | 1011.4 |
| 20260509001142 | 48 | 340 | 0.0 | 1.0 | 0.00 | 0.09 | 0.09 | 81 | 1011.2 |
| 20260509000641 | 48 | 343 | 0.0 | 1.0 | 0.00 | 0.09 | 0.09 | 80 | 1011.1 |
| 20260509000138 | 48 | 342 | 1.0 | 1.0 | 0.00 | 0.09 | 0.09 | 80 | 1011.2 |
| 20260508235635 | 49 | 337 | 1.0 | 1.0 | 0.00 | 0.09 | 0.09 | 80 | 1011.0 |
| 20260508235131 | 49 | 342 | 0.0 | 1.0 | 0.00 | 0.09 | 0.09 | 78 | 1011.2 |
| 20260508234629 | 49 | 326 | 1.0 | 1.0 | 0.00 | 0.09 | 0.09 | 77 | 1010.9 |
| 20260508234125 | 50 | 344 | 1.0 | 1.0 | 0.00 | 0.09 | 0.09 | 74 | 1010.7 |
| 20260508233625 | 50 | 356 | 0.0 | 0.0 | 0.00 | 0.09 | 0.09 | 73 | 1010.6 |
| 20260508233122 | 51 | 350 | 0.0 | 0.0 | 0.00 | 0.09 | 0.09 | 72 | 1010.8 |
| 20260508232619 | 51 | 239 | 1.0 | 1.0 | 0.00 | 0.09 | 0.09 | 68 | 1010.8 |
| 20260508232115 | 52 | 303 | 1.0 | 2.0 | 0.00 | 0.09 | 0.09 | 64 | 1010.7 |
| 20260508231613 | 52 | 293 | 1.0 | 1.0 | 0.00 | 0.09 | 0.09 | 64 | 1010.8 |
| 20260508231110 | 52 | 19 | 0.0 | 1.0 | 0.00 | 0.09 | 0.09 | 63 | 1010.6 |
| 20260508230606 | 53 | 315 | 1.0 | 2.0 | 0.00 | 0.09 | 0.09 | 60 | 1010.8 |
| 20260508225601 | 52 | 289 | 2.0 | 2.0 | 0.00 | 0.09 | 0.09 | 60 | 1010.8 |
| 20260508225057 | 53 | 317 | 1.0 | 1.0 | 0.00 | 0.09 | 0.09 | 60 | 1010.8 |
| 20260508224555 | 53 | 263 | 1.0 | 2.0 | 0.00 | 0.09 | 0.09 | 58 | 1010.6 |
| 20260508224052 | 53 | 217 | 3.0 | 3.0 | 0.00 | 0.09 | 0.09 | 58 | 1010.8 |
| 20260508223550 | 53 | 49 | 1.0 | 1.0 | 0.00 | 0.09 | 0.09 | 60 | 1010.8 |
| 20260508223047 | 53 | 279 | 2.0 | 2.0 | 0.00 | 0.09 | 0.09 | 59 | 1010.7 |
| 20260508222544 | 53 | 204 | 5.0 | 7.0 | 0.00 | 0.09 | 0.09 | 58 | 1010.6 |
| 20260508222041 | 54 | 32 | 1.0 | 1.0 | 0.00 | 0.09 | 0.09 | 59 | 1010.4 |
| 20260508221537 | 53 | 95 | 1.0 | 2.0 | 0.00 | 0.09 | 0.09 | 59 | 1010.3 |
| 20260508221033 | 53 | 355 | 0.0 | 1.0 | 0.00 | 0.09 | 0.09 | 59 | 1010.7 |
| 20260508220530 | 52 | 18 | 0.0 | 1.0 | 0.00 | 0.09 | 0.09 | 61 | 1010.4 |
| 20260508220026 | 52 | 352 | 1.0 | 1.0 | 0.00 | 0.09 | 0.09 | 59 | 1010.6 |
| 20260508215524 | 52 | 174 | 2.0 | 2.0 | 0.00 | 0.09 | 0.09 | 61 | 1010.7 |
| 20260508215020 | 53 | 295 | 2.0 | 2.0 | 0.00 | 0.09 | 0.09 | 58 | 1010.6 |
| 20260508214518 | 53 | 265 | 5.0 | 5.0 | 0.00 | 0.09 | 0.09 | 58 | 1011.0 |
| 20260508214014 | 52 | 226 | 3.0 | 3.0 | 0.00 | 0.09 | 0.09 | 58 | 1010.9 |
| 20260508213512 | 52 | 278 | 3.0 | 3.0 | 0.00 | 0.09 | 0.09 | 58 | 1010.8 |
| 20260508213007 | 52 | 306 | 2.0 | 2.0 | 0.00 | 0.09 | 0.09 | 57 | 1010.7 |
| 20260508212504 | 53 | 269 | 4.0 | 5.0 | 0.00 | 0.09 | 0.09 | 58 | 1011.1 |
| 20260508212000 | 53 | 39 | 2.0 | 2.0 | 0.00 | 0.09 | 0.09 | 58 | 1010.7 |
| 20260508211455 | 52 | 274 | 2.0 | 2.0 | 0.00 | 0.09 | 0.09 | 59 | 1010.9 |
| 20260508210952 | 52 | 323 | 1.0 | 2.0 | 0.00 | 0.09 | 0.09 | 58 | 1010.6 |
| 20260508210449 | 52 | 268 | 3.0 | 3.0 | 0.00 | 0.09 | 0.09 | 59 | 1010.7 |
| 20260508205945 | 52 | 192 | 3.0 | 3.0 | 0.00 | 0.09 | 0.09 | 59 | 1010.9 |
| 20260508205443 | 53 | 206 | 4.0 | 6.0 | 0.00 | 0.09 | 0.09 | 58 | 1010.9 |
| 20260508204938 | 53 | 221 | 6.0 | 7.0 | 0.00 | 0.09 | 0.09 | 57 | 1011.0 |
| 20260508204436 | 52 | 258 | 3.0 | 3.0 | 0.00 | 0.09 | 0.09 | 58 | 1010.8 |
| 20260508203931 | 52 | 236 | 6.0 | 7.0 | 0.00 | 0.09 | 0.09 | 58 | 1010.8 |
| 20260508203428 | 53 | 254 | 3.0 | 3.0 | 0.00 | 0.09 | 0.09 | 59 | 1010.9 |
| 20260508202924 | 52 | 208 | 4.0 | 5.0 | 0.00 | 0.09 | 0.09 | 59 | 1010.9 |
| 20260508202421 | 52 | 246 | 6.0 | 8.0 | 0.00 | 0.09 | 0.09 | 59 | 1011.2 |
| 20260508201918 | 53 | 266 | 4.0 | 5.0 | 0.00 | 0.09 | 0.09 | 60 | 1011.4 |
| 20260508201414 | 53 | 289 | 7.0 | 9.0 | 0.00 | 0.09 | 0.09 | 58 | 1011.2 |
| 20260508200906 | 52 | 301 | 2.0 | 2.0 | 0.00 | 0.09 | 0.09 | 58 | 1011.1 |
| 20260508200403 | 51 | 293 | 4.0 | 5.0 | 0.00 | 0.09 | 0.09 | 60 | 1011.1 |
| 20260508195858 | 51 | 308 | 2.0 | 2.0 | 0.00 | 0.09 | 0.09 | 60 | 1011.4 |
| 20260508195355 | 51 | 313 | 4.0 | 5.0 | 0.00 | 0.09 | 0.09 | 61 | 1011.4 |
| 20260508194851 | 51 | 192 | 3.0 | 3.0 | 0.00 | 0.09 | 0.09 | 61 | 1011.2 |
| 20260508194348 | 51 | 288 | 3.0 | 3.0 | 0.00 | 0.09 | 0.09 | 60 | 1011.2 |
| 20260508193845 | 51 | 178 | 3.0 | 3.0 | 0.00 | 0.09 | 0.09 | 63 | 1011.4 |
| 20260508193342 | 51 | 258 | 3.0 | 5.0 | 0.00 | 0.09 | 0.09 | 62 | 1011.4 |
| 20260508192838 | 51 | 229 | 7.0 | 8.0 | 0.00 | 0.09 | 0.09 | 61 | 1011.2 |
| 20260508192335 | 52 | 291 | 3.0 | 3.0 | 0.00 | 0.09 | 0.09 | 64 | 1011.5 |
| 20260508191832 | 51 | 326 | 4.0 | 5.0 | 0.00 | 0.09 | 0.09 | 65 | 1011.4 |
| 20260508191330 | 52 | 295 | 2.0 | 3.0 | 0.00 | 0.09 | 0.09 | 60 | 1011.3 |
| 20260508190827 | 53 | 241 | 3.0 | 5.0 | 0.00 | 0.09 | 0.09 | 62 | 1011.2 |
| 20260508190323 | 51 | 287 | 2.0 | 2.0 | 0.00 | 0.09 | 0.09 | 63 | 1011.5 |
| 20260508185819 | 51 | 288 | 3.0 | 3.0 | 0.00 | 0.09 | 0.09 | 62 | 1011.6 |
| 20260508185317 | 50 | 311 | 2.0 | 2.0 | 0.00 | 0.09 | 0.09 | 65 | 1011.7 |
| 20260508184814 | 50 | 315 | 4.0 | 5.0 | 0.00 | 0.09 | 0.09 | 65 | 1011.9 |
| 20260508184311 | 50 | 249 | 3.0 | 3.0 | 0.00 | 0.09 | 0.09 | 66 | 1011.8 |
| 20260508183808 | 51 | 274 | 5.0 | 6.0 | 0.00 | 0.09 | 0.09 | 64 | 1011.8 |
| 20260508183305 | 50 | 247 | 5.0 | 6.0 | 0.00 | 0.09 | 0.09 | 65 | 1011.9 |